Portada
METAR-TAF:

METAR-TAF

Aeroports :

Thoothukudi, Índia

latitud: 8-43-27N, longitud: 78-01-33E, altitud: 39 m

Observació

L'informe es va fer fa 52 minuts, a les 04:00 UTC
Vent 3 kt del Nord-Est
Temperatura 32°C
Humitat 59%
Pressió 1012 hPa
Visibilitat: 6000 m
Núvols disperses a una alçada de 2000 ft
Núvols disperses a una alçada de 2500 ft

METAR: VOTK 070400Z 05003KT 6000 SCT020 SCT025 32/23 Q1012 NOSIG

Hora: 10:22 (04:52 UTC)


TAF: manca

Observacions i pronòstics meteorològics de més de 4000 aeroports (METAR i TAF).

Les estacions disponibles són els punts grocs i vermells al mapa.

Posi el ratolí al punt desitjat per veure el nom de l'estació.

Feu clic per veure les observacions i els pronòstics meteorològics.

Per canviar el mapa: feu clic els botons verds amb una creu de color negre per apropar; al botó verd amb un guió per allunyar la imatge; o en les fletxes verdes per a mapes adjacents.


METAR-TAF: